Regional Weather Roundup
Issued by NWS

Home | Current Version | Previous Version | Graphics & Text | Print | Product List | Glossary On
Versions: 1 2 3 4 5 6 7 8 9 10 11 12 13 14 15 16 17 18 19 20 21 22 23 24 25 26 27 28 29 30 31 32 33 34 35 36 37 38 39 40 41 42 43 44 45 46 47 48 49 50
000
ASUS43 KLMK 282202
RWRKY
KENTUCKY REGIONAL WEATHER ROUNDUP
NATIONAL WEATHER SERVICE LOUISVILLE KY
600 PM EDT THU AUG 28 2014

NOTE "FAIR" INDICATES FEW OR NO CLOUDS BELOW 12,000 FEET
WITH NO SIGNIFICANT WEATHER AND/OR OBSTRUCTIONS TO VISIBILITY.

KYZ001>023-026-027-061>063-070>075-282300-
WESTERN AND SOUTH CENTRAL KENTUCKY

CITY           SKY/WX    TMP DP  RH WIND       PRES   REMARKS
PADUCAH        LGT RAIN  77  72  84 N12       30.00R
HENDERSON      CLOUDY    84  73  70 W7        29.97S HX  91
OWENSBORO      PTSUNNY   84  74  72 S7        29.98S HX  91
HOPKINSVILLE   PTSUNNY   84  71  63 SE5       29.99R
BOWLING GREEN  TSTM      76  70  82 E15       30.03R
GLASGOW        NOT AVBL
$$

KYZ024-025-028>034-038-045-046-053-282300-
NORTH CENTRAL KENTUCKY

CITY           SKY/WX    TMP DP  RH WIND       PRES   REMARKS
LOUISVILLE/SDF MOSUNNY   89  71  55 E8        29.98F HX  95
LOUISVILLE/LOU SUNNY     88  70  55 E6        29.99F HX  93
FORT KNOX      SUNNY     87  71  57 NE6       29.98F HX  92
$$

KYZ035>037-039>044-047>052-055>060-089>105-282300-
NORTHEAST KENTUCKY

CITY           SKY/WX    TMP DP  RH WIND       PRES   REMARKS
LEXINGTON      SUNNY     87  68  52 NE3       30.03F HX  90
COVINGTON      PTSUNNY   84  64  50 E9        30.04F
FRANKFORT      MOSUNNY   85  69  58 NE7       30.01F
$$

KYZ054-064>069-076>088-106>120-282300-
SOUTHEAST KENTUCKY

CITY           SKY/WX    TMP DP  RH WIND       PRES   REMARKS
JACKSON        SUNNY     82  67  60 CALM      30.06F
LONDON         SUNNY     87  70  56 VRB5      30.04S HX  92
SOMERSET       NOT AVBL
MIDDLESBORO    NOT AVBL
MONTICELLO     PTCLDY    89  75  63 N7        30.02S HX  98
$$




USA.gov is the U.S. government's official web portal to all federal, state and local government web resources and services.